Location: Dal�� Lhota
(48.7500°N, 14.0167°E)
Time: 02:18:35
(UTC+00:00)

Cosmos 1626 - Pass Details

Date: 24 September 2020
Orbit: 490 x 495 km, 82.5° (Epoch: 29 October)

Event Time Altitude Azimuth Distance (km) Brightness Sun altitude
Rises 19:35:51 0° 341° (NNW) 2,587 6.5 -25.8°
Reaches altitude 10° 19:38:09 10° 330° (NNW) 1,698 5.6 -26.2°
Maximum altitude 19:41:22 29° 269° (W) 936 3.9 -26.6°
Enters shadow 19:41:44 28° 258° (WSW) 948 3.9 -26.7°
